| time (UTC) | temp C | wind direction | speed KPH | gust KPH | rain 1hr cm | rain 24hr cm | rain mn cm | humidity % | barometer mb |
| 20260506050105 | -1 | 270 | 1.6 | 4.8 | 0.00 | 0.05 | 0.00 | 82 | 1009.4 |
| 20260506043055 | -2 | 275 | 1.6 | 3.2 | 0.00 | 0.05 | 0.00 | 82 | 1009.3 |
| 20260506040047 | -3 | 270 | 0.0 | 3.2 | 0.00 | 0.05 | 0.00 | 81 | 1009.1 |
| 20260506033036 | -3 | 270 | 1.6 | 4.8 | 0.00 | 0.05 | 0.00 | 80 | 1009.0 |
| 20260506030047 | -3 | 270 | 1.6 | 4.8 | 0.00 | 0.05 | 0.00 | 80 | 1008.9 |
| 20260506023016 | -3 | 270 | 1.6 | 3.2 | 0.00 | 0.05 | 0.00 | 78 | 1008.7 |
| 20260506020106 | -2 | 270 | 1.6 | 4.8 | 0.00 | 0.05 | 0.00 | 77 | 1008.5 |
| 20260506013057 | -2 | 270 | 0.0 | 3.2 | 0.00 | 0.05 | 0.00 | 75 | 1008.4 |
| 20260506010047 | -2 | 270 | 1.6 | 3.2 | 0.00 | 0.05 | 0.00 | 72 | 1008.1 |
| 20260506003038 | -2 | 270 | 1.6 | 3.2 | 0.00 | 0.05 | 0.00 | 70 | 1008.0 |
| 20260506000028 | -2 | 270 | 1.6 | 4.8 | 0.00 | 0.05 | 0.00 | 69 | 1008.0 |
| 20260505233018 | -1 | 270 | 1.6 | 4.8 | 0.00 | 0.05 | 0.00 | 66 | 1007.9 |
| 20260505230110 | 0 | 270 | 1.6 | 4.8 | 0.00 | 0.05 | 0.00 | 63 | 1007.8 |
| 20260505223058 | 0 | 270 | 1.6 | 4.8 | 0.00 | 0.05 | 0.00 | 61 | 1007.7 |
| 20260505220049 | 0 | 270 | 1.6 | 3.2 | 0.00 | 0.05 | 0.00 | 60 | 1007.6 |
| 20260505213040 | 1 | 270 | 0.0 | 3.2 | 0.00 | 0.05 | 0.05 | 58 | 1007.4 |
| 20260505210051 | 2 | 270 | 1.6 | 3.2 | 0.00 | 0.05 | 0.05 | 55 | 1007.2 |
| 20260505203019 | 3 | 270 | 1.6 | 4.8 | 0.00 | 0.05 | 0.05 | 54 | 1007.1 |
| 20260505200111 | 5 | 270 | 1.6 | 4.8 | 0.00 | 0.05 | 0.05 | 52 | 1006.8 |
| 20260505193100 | 6 | 281 | 1.6 | 4.8 | 0.00 | 0.05 | 0.05 | 48 | 1006.5 |
| 20260505190049 | 8 | 286 | 1.6 | 8.0 | 0.00 | 0.05 | 0.05 | 34 | 1006.2 |
| 20260505183043 | 10 | 278 | 4.8 | 9.7 | 0.00 | 0.05 | 0.05 | 32 | 1005.9 |
| 20260505180112 | 11 | 270 | 6.4 | 12.9 | 0.00 | 0.05 | 0.05 | 31 | 1005.8 |
| 20260505173043 | 11 | 270 | 8.0 | 17.7 | 0.00 | 0.05 | 0.05 | 31 | 1005.6 |
| 20260505170112 | 12 | 269 | 8.0 | 19.3 | 0.00 | 0.05 | 0.05 | 30 | 1005.5 |
| 20260505163101 | 12 | 266 | 9.7 | 24.1 | 0.00 | 0.05 | 0.05 | 30 | 1005.4 |
| 20260505153043 | 12 | 280 | 11.3 | 25.7 | 0.00 | 0.05 | 0.05 | 28 | 1005.4 |
| 20260505140112 | 12 | 266 | 11.3 | 29.0 | 0.00 | 0.05 | 0.05 | 29 | 1005.3 |
| 20260505123103 | 12 | 256 | 9.7 | 22.5 | 0.00 | 0.05 | 0.05 | 31 | 1005.2 |
| 20260505120032 | 12 | 233 | 11.3 | 30.6 | 0.00 | 0.05 | 0.05 | 33 | 1005.1 |
| 20260505113021 | 11 | 253 | 9.7 | 22.5 | 0.00 | 0.05 | 0.05 | 36 | 1005.0 |
| 20260505110112 | 11 | 247 | 9.7 | 20.9 | 0.00 | 0.05 | 0.05 | 37 | 1004.8 |
| 20260505100114 | 11 | 268 | 9.7 | 20.9 | 0.00 | 0.05 | 0.05 | 42 | 1004.6 |
| 20260505093042 | 10 | 288 | 12.9 | 27.4 | 0.00 | 0.05 | 0.05 | 42 | 1004.5 |
| 20260505090032 | 11 | 259 | 9.7 | 20.9 | 0.00 | 0.05 | 0.05 | 41 | 1004.3 |
| 20260505083022 | 11 | 270 | 12.9 | 25.7 | 0.00 | 0.05 | 0.05 | 41 | 1004.1 |
| 20260505080132 | 12 | 260 | 12.9 | 25.7 | 0.00 | 0.05 | 0.05 | 39 | 1004.0 |
| 20260505073102 | 15 | 255 | 9.7 | 19.3 | 0.05 | 0.05 | 0.05 | 37 | 1003.7 |
| 20260505070053 | 15 | 262 | 11.3 | 20.9 | 0.05 | 0.08 | 0.05 | 37 | 1003.5 |
| 20260505063042 | 12 | 260 | 9.7 | 17.7 | 0.00 | 0.03 | 0.00 | 47 | 1003.4 |